Time,TemperatureF,DewpointF,PressureIn,WindDirection,WindDirectionDegrees,WindSpeedMPH,WindSpeedGustMPH,Humidity,HourlyPrecipIn,Conditions,Clouds,dailyrainin,SoftwareType,DateUTC
2013-02-10 00:00:00,23.7,20.1,29.85,SSE,157,0.0,0.0,86,0.00,,,0.08,WUHU21623XXSP,2013-02-10 06:00:00,
2013-02-10 00:05:00,23.7,20.1,29.85,SSE,157,0.0,0.0,86,0.00,,,0.00,WUHU21623XXSP,2013-02-10 06:05:00,
2013-02-10 00:10:00,23.5,19.9,29.85,SSE,157,0.0,0.0,86,0.00,,,0.00,WUHU21623XXSP,2013-02-10 06:10:00,
2013-02-10 00:15:00,23.7,20.1,29.85,SSE,157,0.0,0.0,86,0.00,,,0.00,WUHU21623XXSP,2013-02-10 06:15:00,
2013-02-10 00:20:00,23.5,19.9,29.85,SSE,157,0.0,0.0,86,0.00,,,0.00,WUHU21623XXSP,2013-02-10 06:20:00,
2013-02-10 00:25:00,23.5,19.9,29.85,SSE,157,0.0,0.0,86,0.00,,,0.00,WUHU21623XXSP,2013-02-10 06:25:00,
2013-02-10 00:30:00,23.5,19.9,29.84,SSE,157,0.0,0.0,86,0.00,,,0.00,WUHU21623XXSP,2013-02-10 06:30:00,
2013-02-10 00:35:00,23.5,19.9,29.84,SSE,157,0.0,0.0,86,0.00,,,0.00,WUHU21623XXSP,2013-02-10 06:35:00,
2013-02-10 00:40:00,23.5,19.9,29.84,SSE,157,0.0,0.0,86,0.00,,,0.00,WUHU21623XXSP,2013-02-10 06:40:00,
2013-02-10 00:45:00,23.4,19.8,29.84,SSE,157,0.0,0.0,86,0.00,,,0.00,WUHU21623XXSP,2013-02-10 06:45:00,
2013-02-10 00:50:00,23.4,19.8,29.84,SSE,157,0.0,0.0,86,0.00,,,0.00,WUHU21623XXSP,2013-02-10 06:50:00,
2013-02-10 00:55:00,23.4,19.8,29.84,SSE,157,0.0,0.0,86,0.00,,,0.00,WUHU21623XXSP,2013-02-10 06:55:00,
2013-02-10 01:00:00,23.4,19.8,29.84,SSE,157,0.0,0.0,86,0.00,,,0.00,WUHU21623XXSP,2013-02-10 07:00:00,
2013-02-10 01:05:00,23.5,19.9,29.84,SSE,157,0.0,0.0,86,0.00,,,0.00,WUHU21623XXSP,2013-02-10 07:05:00,
2013-02-10 01:10:00,23.4,19.8,29.84,SSE,157,0.0,0.0,86,0.00,,,0.00,WUHU21623XXSP,2013-02-10 07:10:00,
2013-02-10 01:15:00,23.2,19.6,29.83,SSE,157,0.0,0.0,86,0.00,,,0.00,WUHU21623XXSP,2013-02-10 07:15:00,
2013-02-10 01:20:00,23.2,19.6,29.83,SSE,157,0.0,0.0,86,0.00,,,0.00,WUHU21623XXSP,2013-02-10 07:20:00,
2013-02-10 01:25:00,23.2,19.6,29.83,SSE,157,0.0,0.0,86,0.00,,,0.00,WUHU21623XXSP,2013-02-10 07:25:00,
2013-02-10 01:30:00,23.2,19.6,29.83,SSE,157,0.0,0.0,86,0.00,,,0.00,WUHU21623XXSP,2013-02-10 07:30:00,
2013-02-10 01:35:00,23.2,19.6,29.83,SSE,157,0.0,0.0,86,0.00,,,0.00,WUHU21623XXSP,2013-02-10 07:35:00,
2013-02-10 01:41:00,23.2,19.6,29.83,SSE,157,0.0,0.0,86,0.00,,,0.00,WUHU21623XXSP,2013-02-10 07:41:00,
2013-02-10 01:46:00,23.2,19.6,29.83,SSE,157,0.0,0.0,86,0.00,,,0.00,WUHU21623XXSP,2013-02-10 07:46:00,
2013-02-10 01:51:00,23.2,19.6,29.84,SSE,157,0.0,0.0,86,0.00,,,0.00,WUHU21623XXSP,2013-02-10 07:51:00,
2013-02-10 01:56:00,23.2,19.6,29.83,SSE,157,0.0,0.0,86,0.00,,,0.00,WUHU21623XXSP,2013-02-10 07:56:00,
2013-02-10 02:01:00,23.2,19.6,29.83,SSE,157,0.0,0.0,86,0.00,,,0.00,WUHU21623XXSP,2013-02-10 08:01:00,
2013-02-10 02:06:00,23.4,19.8,29.83,SSE,157,0.0,0.0,86,0.00,,,0.00,WUHU21623XXSP,2013-02-10 08:06:00,
2013-02-10 02:11:00,23.4,19.8,29.83,SSE,157,0.0,0.0,86,0.00,,,0.00,WUHU21623XXSP,2013-02-10 08:11:00,
2013-02-10 02:16:00,23.5,19.9,29.83,SSE,157,0.0,0.0,86,0.00,,,0.00,WUHU21623XXSP,2013-02-10 08:16:00,
2013-02-10 02:20:00,23.4,19.8,29.83,SSE,157,0.0,0.0,86,0.00,,,0.00,WUHU21623XXSP,2013-02-10 08:20:00,
2013-02-10 02:26:00,23.5,19.9,29.83,SSE,157,0.0,0.0,86,0.00,,,0.00,WUHU21623XXSP,2013-02-10 08:26:00,
2013-02-10 02:30:00,23.5,19.9,29.83,SSE,157,0.0,0.0,86,0.00,,,0.00,WUHU21623XXSP,2013-02-10 08:30:00,
2013-02-10 02:35:00,23.5,19.9,29.83,SSE,157,0.0,0.0,86,0.00,,,0.00,WUHU21623XXSP,2013-02-10 08:35:00,
2013-02-10 02:40:00,23.5,19.9,29.83,SSE,157,0.0,0.0,86,0.00,,,0.00,WUHU21623XXSP,2013-02-10 08:40:00,
2013-02-10 02:45:00,23.5,19.9,29.83,SSE,157,0.0,0.0,86,0.00,,,0.00,WUHU21623XXSP,2013-02-10 08:45:00,
2013-02-10 02:50:00,23.4,19.8,29.83,SSE,157,0.1,0.9,86,0.00,,,0.00,WUHU21623XXSP,2013-02-10 08:50:00,
2013-02-10 02:55:00,23.5,19.9,29.83,SE,135,0.0,0.9,86,0.00,,,0.00,WUHU21623XXSP,2013-02-10 08:55:00,
2013-02-10 03:00:00,23.5,19.9,29.82,East,90,0.0,0.9,86,0.00,,,0.00,WUHU21623XXSP,2013-02-10 09:00:00,
2013-02-10 03:05:00,23.5,19.9,29.82,SSE,157,0.0,0.9,86,0.00,,,0.00,WUHU21623XXSP,2013-02-10 09:05:00,
2013-02-10 03:10:00,23.5,19.9,29.82,SSE,157,0.0,0.0,86,0.00,,,0.00,WUHU21623XXSP,2013-02-10 09:10:00,
2013-02-10 03:15:00,23.5,19.9,29.81,SSE,157,0.0,0.7,86,0.00,,,0.00,WUHU21623XXSP,2013-02-10 09:15:00,
2013-02-10 03:21:00,23.5,19.9,29.81,SSE,157,0.1,0.9,86,0.00,,,0.00,WUHU21623XXSP,2013-02-10 09:21:00,
2013-02-10 03:26:00,23.5,19.9,29.81,SSE,157,0.0,0.9,86,0.00,,,0.00,WUHU21623XXSP,2013-02-10 09:26:00,
2013-02-10 03:31:00,23.5,19.9,29.80,NE,45,0.0,1.3,86,0.00,,,0.00,WUHU21623XXSP,2013-02-10 09:31:00,
2013-02-10 03:36:00,23.5,19.9,29.80,East,90,0.0,1.3,86,0.00,,,0.00,WUHU21623XXSP,2013-02-10 09:36:00,
2013-02-10 03:41:00,23.5,19.9,29.80,East,90,0.0,0.0,86,0.00,,,0.00,WUHU21623XXSP,2013-02-10 09:41:00,
2013-02-10 03:46:00,23.5,19.9,29.81,SE,135,0.0,1.6,86,0.00,,,0.00,WUHU21623XXSP,2013-02-10 09:46:00,
2013-02-10 03:51:00,23.5,19.9,29.80,SE,135,0.0,1.6,86,0.00,,,0.00,WUHU21623XXSP,2013-02-10 09:51:00,
2013-02-10 03:56:00,23.5,19.9,29.80,SE,135,0.0,0.0,86,0.00,,,0.00,WUHU21623XXSP,2013-02-10 09:56:00,
2013-02-10 04:01:00,23.5,19.9,29.80,East,90,0.0,0.0,86,0.00,,,0.00,WUHU21623XXSP,2013-02-10 10:01:00,
2013-02-10 04:06:00,23.5,19.9,29.80,SE,135,0.0,0.0,86,0.00,,,0.00,WUHU21623XXSP,2013-02-10 10:06:00,
2013-02-10 04:11:00,23.5,19.9,29.79,ENE,67,0.0,0.0,86,0.00,,,0.00,WUHU21623XXSP,2013-02-10 10:11:00,
2013-02-10 04:17:00,23.5,19.9,29.79,SE,135,0.0,0.0,86,0.00,,,0.00,WUHU21623XXSP,2013-02-10 10:17:00,
2013-02-10 04:22:00,23.5,19.9,29.79,ESE,112,0.1,0.9,86,0.00,,,0.00,WUHU21623XXSP,2013-02-10 10:22:00,
2013-02-10 04:27:00,23.5,19.9,29.79,ESE,112,0.0,0.9,86,0.00,,,0.00,WUHU21623XXSP,2013-02-10 10:27:00,
2013-02-10 04:32:00,23.5,19.9,29.80,SE,135,0.0,0.7,86,0.00,,,0.00,WUHU21623XXSP,2013-02-10 10:32:00,
2013-02-10 04:37:00,23.5,19.9,29.80,ESE,112,0.2,1.1,86,0.00,,,0.00,WUHU21623XXSP,2013-02-10 10:37:00,
2013-02-10 04:42:00,23.5,19.9,29.80,SE,135,0.0,1.1,86,0.00,,,0.00,WUHU21623XXSP,2013-02-10 10:42:00,
2013-02-10 04:47:00,23.5,19.9,29.80,SSE,157,0.0,0.0,86,0.00,,,0.00,WUHU21623XXSP,2013-02-10 10:47:00,
2013-02-10 04:52:00,23.5,19.9,29.80,SSE,157,0.0,0.0,86,0.00,,,0.00,WUHU21623XXSP,2013-02-10 10:52:00,
2013-02-10 04:57:00,23.5,19.9,29.80,SSE,157,0.0,0.7,86,0.00,,,0.00,WUHU21623XXSP,2013-02-10 10:57:00,
2013-02-10 05:02:00,23.5,19.9,29.80,NE,45,0.0,1.1,86,0.00,,,0.00,WUHU21623XXSP,2013-02-10 11:02:00,
2013-02-10 05:07:00,23.5,19.9,29.79,NE,45,0.0,1.1,86,0.00,,,0.00,WUHU21623XXSP,2013-02-10 11:07:00,
2013-02-10 05:12:00,23.5,19.9,29.79,NE,45,0.0,0.0,86,0.00,,,0.00,WUHU21623XXSP,2013-02-10 11:12:00,
2013-02-10 05:17:00,23.5,19.9,29.78,NE,45,0.0,0.0,86,0.00,,,0.00,WUHU21623XXSP,2013-02-10 11:17:00,
2013-02-10 05:22:00,23.5,19.9,29.78,ENE,67,0.0,1.1,86,0.00,,,0.00,WUHU21623XXSP,2013-02-10 11:22:00,
2013-02-10 05:27:00,23.5,19.9,29.78,NE,45,1.1,1.1,86,0.00,,,0.00,WUHU21623XXSP,2013-02-10 11:27:00,
2013-02-10 05:32:00,23.5,19.9,29.78,NE,45,0.0,1.1,86,0.00,,,0.00,WUHU21623XXSP,2013-02-10 11:32:00,
2013-02-10 05:37:00,23.5,19.9,29.78,ENE,67,0.7,0.7,86,0.00,,,0.00,WUHU21623XXSP,2013-02-10 11:37:00,
2013-02-10 05:42:00,23.5,19.9,29.78,NE,45,0.0,1.1,86,0.00,,,0.00,WUHU21623XXSP,2013-02-10 11:42:00,
2013-02-10 05:47:00,23.5,19.9,29.78,NNE,22,0.1,3.4,86,0.00,,,0.00,WUHU21623XXSP,2013-02-10 11:47:00,
2013-02-10 05:52:00,23.5,19.9,29.77,ENE,67,0.0,3.4,86,0.00,,,0.00,WUHU21623XXSP,2013-02-10 11:52:00,
2013-02-10 05:57:00,23.5,19.9,29.77,SE,135,0.2,1.3,86,0.00,,,0.00,WUHU21623XXSP,2013-02-10 11:57:00,
2013-02-10 06:02:00,23.5,19.9,29.77,ENE,67,0.2,1.3,86,0.00,,,0.00,WUHU21623XXSP,2013-02-10 12:02:00,
2013-02-10 06:07:00,23.5,19.9,29.77,ENE,67,0.0,1.3,86,0.00,,,0.00,WUHU21623XXSP,2013-02-10 12:07:00,
2013-02-10 06:12:00,23.5,19.9,29.77,ENE,67,0.1,1.1,86,0.00,,,0.00,WUHU21623XXSP,2013-02-10 12:12:00,
2013-02-10 06:17:00,23.5,19.9,29.78,ENE,67,0.0,0.9,86,0.00,,,0.00,WUHU21623XXSP,2013-02-10 12:17:00,
2013-02-10 06:22:00,23.5,19.9,29.77,ENE,67,0.0,0.0,86,0.00,,,0.00,WUHU21623XXSP,2013-02-10 12:22:00,
2013-02-10 06:27:00,23.5,19.9,29.77,ENE,67,0.0,1.6,86,0.00,,,0.00,WUHU21623XXSP,2013-02-10 12:27:00,
2013-02-10 06:32:00,23.5,19.9,29.77,NE,45,0.0,1.6,86,0.00,,,0.00,WUHU21623XXSP,2013-02-10 12:32:00,
2013-02-10 06:37:00,23.5,19.9,29.76,NE,45,0.1,1.3,86,0.00,,,0.00,WUHU21623XXSP,2013-02-10 12:37:00,
2013-02-10 06:42:00,23.5,19.9,29.75,ENE,67,1.1,1.6,86,0.00,,,0.00,WUHU21623XXSP,2013-02-10 12:42:00,
2013-02-10 06:47:00,23.7,20.1,29.75,NE,46,0.7,2.0,86,0.00,,,0.00,WUHU21623XXSP,2013-02-10 12:47:00,
2013-02-10 06:52:00,23.7,20.1,29.75,ENE,67,0.6,3.1,86,0.00,,,0.00,WUHU21623XXSP,2013-02-10 12:52:00,
2013-02-10 06:57:00,23.7,20.1,29.76,NNE,22,0.0,3.1,86,0.00,,,0.00,WUHU21623XXSP,2013-02-10 12:57:00,
2013-02-10 07:02:00,23.9,20.3,29.76,East,90,0.0,2.7,86,0.00,,,0.00,WUHU21623XXSP,2013-02-10 13:02:00,
2013-02-10 07:07:00,23.9,20.3,29.76,NE,45,0.2,3.6,86,0.00,,,0.00,WUHU21623XXSP,2013-02-10 13:07:00,
2013-02-10 07:12:00,23.9,20.3,29.76,NE,45,1.1,3.6,86,0.00,,,0.00,WUHU21623XXSP,2013-02-10 13:12:00,
2013-02-10 07:17:00,23.9,20.3,29.75,ESE,112,0.6,2.9,86,0.00,,,0.00,WUHU21623XXSP,2013-02-10 13:17:00,
2013-02-10 07:22:00,23.9,20.3,29.75,ENE,67,0.1,2.7,86,0.00,,,0.00,WUHU21623XXSP,2013-02-10 13:22:00,
2013-02-10 07:27:00,23.9,20.3,29.75,NE,45,0.0,1.6,86,0.00,,,0.00,WUHU21623XXSP,2013-02-10 13:27:00,
2013-02-10 07:32:00,24.1,20.5,29.75,ENE,60,0.3,1.8,86,0.00,,,0.00,WUHU21623XXSP,2013-02-10 13:32:00,
2013-02-10 07:37:00,23.9,20.3,29.75,ENE,67,0.3,1.8,86,0.00,,,0.00,WUHU21623XXSP,2013-02-10 13:37:00,
2013-02-10 07:42:00,24.1,20.5,29.75,ENE,57,0.3,1.1,86,0.00,,,0.00,WUHU21623XXSP,2013-02-10 13:42:00,
2013-02-10 07:47:00,24.1,20.5,29.74,ENE,67,0.3,2.2,86,0.00,,,0.00,WUHU21623XXSP,2013-02-10 13:47:00,
2013-02-10 07:52:00,24.1,20.5,29.74,NE,45,0.7,3.1,86,0.00,,,0.00,WUHU21623XXSP,2013-02-10 13:52:00,
2013-02-10 07:57:00,24.1,20.5,29.74,ENE,57,0.8,3.1,86,0.00,,,0.00,WUHU21623XXSP,2013-02-10 13:57:00,
2013-02-10 08:02:00,24.1,20.5,29.74,East,90,1.8,3.6,86,0.00,,,0.00,WUHU21623XXSP,2013-02-10 14:02:00,
2013-02-10 08:07:00,24.1,20.5,29.73,NE,56,0.6,3.6,86,0.00,,,0.00,WUHU21623XXSP,2013-02-10 14:07:00,
2013-02-10 08:12:00,24.1,20.5,29.73,ENE,67,2.5,4.5,86,0.00,,,0.00,WUHU21623XXSP,2013-02-10 14:12:00,
2013-02-10 08:17:00,24.1,20.5,29.75,SE,127,0.3,4.9,86,0.00,,,0.00,WUHU21623XXSP,2013-02-10 14:17:00,
2013-02-10 08:22:00,24.1,20.5,29.74,ENE,67,1.8,4.9,86,0.00,,,0.00,WUHU21623XXSP,2013-02-10 14:22:00,
2013-02-10 08:27:00,24.3,20.7,29.74,ENE,65,1.8,5.8,86,0.00,,,0.00,WUHU21623XXSP,2013-02-10 14:27:00,
2013-02-10 08:32:00,24.4,20.8,29.74,ENE,64,1.4,5.8,86,0.00,,,0.00,WUHU21623XXSP,2013-02-10 14:32:00,
2013-02-10 08:37:00,24.4,20.8,29.73,ENE,67,2.5,4.3,86,0.00,,,0.00,WUHU21623XXSP,2013-02-10 14:37:00,
2013-02-10 08:42:00,24.4,20.8,29.73,NE,45,2.0,3.4,86,0.00,,,0.00,WUHU21623XXSP,2013-02-10 14:42:00,
2013-02-10 08:47:00,24.4,20.8,29.72,ENE,66,4.3,9.2,86,0.00,,,0.00,WUHU21623XXSP,2013-02-10 14:47:00,
2013-02-10 08:52:00,24.4,20.6,29.71,East,88,1.5,9.2,85,0.00,,,0.00,WUHU21623XXSP,2013-02-10 14:52:00,
2013-02-10 08:57:00,24.4,20.6,29.71,ENE,67,1.1,6.7,85,0.00,,,0.00,WUHU21623XXSP,2013-02-10 14:57:00,
2013-02-10 09:02:00,24.6,20.8,29.71,East,86,1.6,7.2,85,0.00,,,0.00,WUHU21623XXSP,2013-02-10 15:02:00,
2013-02-10 09:07:00,24.6,20.8,29.71,ENE,76,2.1,7.2,85,0.00,,,0.00,WUHU21623XXSP,2013-02-10 15:07:00,
2013-02-10 09:12:00,24.6,20.8,29.73,ENE,67,1.8,9.2,85,0.18,,,0.18,WUHU21623XXSP,2013-02-10 15:12:00,
2013-02-10 09:17:00,24.6,20.8,29.72,NE,54,1.3,9.2,85,0.18,,,0.18,WUHU21623XXSP,2013-02-10 15:17:00,
2013-02-10 09:22:00,24.6,20.8,29.71,NE,45,2.5,7.2,85,0.18,,,0.18,WUHU21623XXSP,2013-02-10 15:22:00,
2013-02-10 09:27:00,24.6,20.8,29.70,NE,45,3.8,9.2,85,0.18,,,0.18,WUHU21623XXSP,2013-02-10 15:27:00,
2013-02-10 09:32:00,24.6,20.8,29.69,NE,51,4.3,9.2,85,0.18,,,0.18,WUHU21623XXSP,2013-02-10 15:32:00,
2013-02-10 09:37:00,24.6,20.8,29.69,NE,45,2.3,10.1,85,0.18,,,0.18,WUHU21623XXSP,2013-02-10 15:37:00,
2013-02-10 09:42:00,24.6,20.8,29.69,NE,45,4.5,10.1,85,0.18,,,0.18,WUHU21623XXSP,2013-02-10 15:42:00,
2013-02-10 09:47:00,24.6,20.8,29.69,ENE,61,2.4,6.9,85,0.18,,,0.18,WUHU21623XXSP,2013-02-10 15:47:00,
2013-02-10 09:52:00,24.6,20.8,29.69,ENE,59,1.9,7.6,85,0.18,,,0.18,WUHU21623XXSP,2013-02-10 15:52:00,
2013-02-10 09:57:00,24.4,20.8,29.69,East,90,4.0,7.6,86,0.18,,,0.18,WUHU21623XXSP,2013-02-10 15:57:00,
2013-02-10 10:02:00,24.4,20.8,29.70,ENE,62,1.6,5.6,86,0.39,,,0.39,WUHU21623XXSP,2013-02-10 16:02:00,
2013-02-10 10:07:00,24.4,20.8,29.69,East,96,0.9,8.5,86,0.75,,,0.75,WUHU21623XXSP,2013-02-10 16:07:00,
2013-02-10 10:12:00,24.4,20.8,29.70,East,90,1.1,8.5,86,0.57,,,0.75,WUHU21623XXSP,2013-02-10 16:12:00,
2013-02-10 10:17:00,24.6,21.0,29.69,East,90,3.8,6.0,86,0.57,,,0.75,WUHU21623XXSP,2013-02-10 16:17:00,
2013-02-10 10:22:00,24.6,21.0,29.69,East,90,0.1,8.7,86,0.57,,,0.75,WUHU21623XXSP,2013-02-10 16:22:00,
2013-02-10 10:27:00,24.6,21.0,29.70,NE,45,0.4,8.7,86,0.57,,,0.75,WUHU21623XXSP,2013-02-10 16:27:00,
2013-02-10 10:32:00,24.8,21.2,29.70,NE,42,2.6,6.0,86,0.57,,,0.75,WUHU21623XXSP,2013-02-10 16:32:00,
2013-02-10 10:37:00,25.0,21.4,29.70,NE,45,2.2,6.0,86,0.57,,,0.75,WUHU21623XXSP,2013-02-10 16:37:00,
2013-02-10 10:42:00,25.0,21.4,29.69,ENE,57,1.7,6.9,86,2.57,,,2.75,WUHU21623XXSP,2013-02-10 16:42:00,
2013-02-10 10:47:00,25.0,21.4,29.68,ENE,74,1.3,6.9,86,2.57,,,2.75,WUHU21623XXSP,2013-02-10 16:47:00,
2013-02-10 10:52:00,25.0,21.4,29.67,NE,52,3.7,9.4,86,2.57,,,2.75,WUHU21623XXSP,2013-02-10 16:52:00,
2013-02-10 10:57:00,25.0,21.4,29.67,NE,45,3.4,9.4,86,2.57,,,2.75,WUHU21623XXSP,2013-02-10 16:57:00,
2013-02-10 11:02:00,25.2,21.5,29.68,East,90,4.0,6.9,86,2.34,,,2.75,WUHU21623XXSP,2013-02-10 17:02:00,
2013-02-10 11:07:00,25.2,21.5,29.68,ENE,59,2.5,11.4,86,2.00,,,2.75,WUHU21623XXSP,2013-02-10 17:07:00,
2013-02-10 11:12:00,25.3,21.7,29.67,NE,45,1.3,11.4,86,2.00,,,2.75,WUHU21623XXSP,2013-02-10 17:12:00,
2013-02-10 11:18:00,25.3,21.7,29.66,East,100,2.4,7.6,86,2.00,,,2.75,WUHU21623XXSP,2013-02-10 17:18:00,
2013-02-10 11:22:00,25.3,21.7,29.67,ENE,78,2.1,6.5,86,2.00,,,2.75,WUHU21623XXSP,2013-02-10 17:22:00,
2013-02-10 11:27:00,25.3,21.7,29.67,SE,135,5.4,7.8,86,2.00,,,2.75,WUHU21623XXSP,2013-02-10 17:27:00,
2013-02-10 11:32:00,25.5,21.9,29.66,ENE,67,3.6,12.1,86,2.00,,,2.75,WUHU21623XXSP,2013-02-10 17:32:00,
2013-02-10 11:37:00,25.5,21.9,29.65,North,0,4.3,12.1,86,0.75,,,2.75,WUHU21623XXSP,2013-02-10 17:37:00,
2013-02-10 11:43:00,25.5,21.9,29.65,ENE,67,2.5,6.9,86,0.00,,,2.75,WUHU21623XXSP,2013-02-10 17:43:00,
2013-02-10 11:47:00,25.5,21.9,29.64,ENE,67,6.0,6.9,86,0.00,,,2.75,WUHU21623XXSP,2013-02-10 17:47:00,
2013-02-10 11:52:00,25.5,21.9,29.64,NNE,22,4.9,9.6,86,0.00,,,2.75,WUHU21623XXSP,2013-02-10 17:52:00,
2013-02-10 11:57:00,25.5,21.9,29.63,ESE,112,4.9,9.6,86,0.00,,,2.75,WUHU21623XXSP,2013-02-10 17:57:00,
2013-02-10 12:02:00,25.3,21.7,29.62,ENE,64,3.6,8.3,86,0.00,,,2.75,WUHU21623XXSP,2013-02-10 18:02:00,
2013-02-10 12:07:00,25.5,21.9,29.61,ENE,67,3.4,8.5,86,0.00,,,2.75,WUHU21623XXSP,2013-02-10 18:07:00,
2013-02-10 12:12:00,25.5,21.6,29.61,SE,135,5.4,8.5,85,0.00,,,2.75,WUHU21623XXSP,2013-02-10 18:12:00,
2013-02-10 12:17:00,25.3,21.4,29.61,East,84,5.6,12.3,85,0.00,,,2.75,WUHU21623XXSP,2013-02-10 18:17:00,
2013-02-10 12:22:00,25.3,21.6,29.60,NNE,22,9.2,12.3,85,0.00,,,2.75,WUHU21623XXSP,2013-02-10 18:22:00,
2013-02-10 12:27:00,25.5,21.6,29.60,ESE,112,6.7,9.2,85,0.00,,,2.75,WUHU21623XXSP,2013-02-10 18:27:00,
2013-02-10 12:32:00,25.5,21.6,29.60,ESE,112,4.3,9.2,85,0.00,,,2.75,WUHU21623XXSP,2013-02-10 18:32:00,
2013-02-10 12:37:00,25.5,21.3,29.60,East,96,3.4,6.7,84,0.00,,,2.75,WUHU21623XXSP,2013-02-10 18:37:00,
2013-02-10 12:42:00,25.5,21.3,29.60,ENE,78,4.8,8.7,84,0.00,,,2.75,WUHU21623XXSP,2013-02-10 18:42:00,
2013-02-10 12:47:00,25.5,21.3,29.59,ENE,70,5.0,8.7,84,0.00,,,2.75,WUHU21623XXSP,2013-02-10 18:47:00,
2013-02-10 12:52:00,25.5,21.3,29.59,East,94,3.1,7.4,84,0.00,,,2.75,WUHU21623XXSP,2013-02-10 18:52:00,
2013-02-10 12:57:00,25.5,21.3,29.59,East,90,3.8,8.9,84,0.00,,,2.75,WUHU21623XXSP,2013-02-10 18:57:00,
2013-02-10 13:02:00,25.5,21.3,29.58,NE,45,2.7,8.9,84,0.00,,,2.75,WUHU21623XXSP,2013-02-10 19:02:00,
2013-02-10 13:07:00,25.5,21.6,29.58,NE,45,3.1,7.2,85,0.00,,,2.75,WUHU21623XXSP,2013-02-10 19:07:00,
2013-02-10 13:12:00,25.5,21.6,29.57,East,90,4.1,11.0,85,0.00,,,2.75,WUHU21623XXSP,2013-02-10 19:12:00,
2013-02-10 13:17:00,25.7,21.5,29.57,ENE,74,5.2,11.2,84,0.00,,,2.75,WUHU21623XXSP,2013-02-10 19:17:00,
2013-02-10 13:22:00,25.5,21.3,29.57,ENE,66,3.3,11.2,84,0.00,,,2.75,WUHU21623XXSP,2013-02-10 19:22:00,
2013-02-10 13:27:00,25.5,21.3,29.57,East,85,3.0,10.3,84,0.00,,,2.75,WUHU21623XXSP,2013-02-10 19:27:00,
2013-02-10 13:32:00,25.5,21.6,29.57,ENE,73,3.4,7.2,85,0.00,,,2.75,WUHU21623XXSP,2013-02-10 19:32:00,
2013-02-10 13:37:00,25.5,21.6,29.56,ENE,78,1.1,6.5,85,0.00,,,2.75,WUHU21623XXSP,2013-02-10 19:37:00,
2013-02-10 13:42:00,25.5,21.6,29.56,ENE,67,3.4,7.4,85,0.00,,,2.75,WUHU21623XXSP,2013-02-10 19:42:00,
2013-02-10 13:47:00,25.5,21.6,29.55,NE,45,2.9,7.8,85,0.00,,,2.75,WUHU21623XXSP,2013-02-10 19:47:00,
2013-02-10 13:52:00,25.5,21.6,29.54,NE,42,2.1,7.8,85,0.00,,,2.75,WUHU21623XXSP,2013-02-10 19:52:00,
2013-02-10 13:57:00,25.5,21.6,29.54,NNW,337,7.4,7.4,85,0.00,,,2.75,WUHU21623XXSP,2013-02-10 19:57:00,
2013-02-10 14:02:00,25.7,21.8,29.53,East,90,5.4,9.4,85,0.00,,,2.75,WUHU21623XXSP,2013-02-10 20:02:00,
2013-02-10 14:07:00,25.7,21.8,29.54,NE,45,7.2,9.6,85,0.00,,,2.75,WUHU21623XXSP,2013-02-10 20:07:00,
2013-02-10 14:12:00,25.7,21.5,29.53,NE,47,2.4,9.6,84,0.00,,,2.75,WUHU21623XXSP,2013-02-10 20:12:00,
2013-02-10 14:17:00,25.7,21.5,29.53,NE,49,2.8,8.5,84,0.00,,,2.75,WUHU21623XXSP,2013-02-10 20:17:00,
2013-02-10 14:22:00,25.9,21.7,29.54,East,88,2.7,8.5,84,0.00,,,2.75,WUHU21623XXSP,2013-02-10 20:22:00,
2013-02-10 14:27:00,25.7,21.5,29.53,East,89,1.9,7.8,84,0.00,,,2.75,WUHU21623XXSP,2013-02-10 20:27:00,
2013-02-10 14:32:00,25.9,21.7,29.53,NE,45,0.0,7.4,84,0.00,,,2.75,WUHU21623XXSP,2013-02-10 20:32:00,
2013-02-10 14:37:00,25.7,21.5,29.53,ENE,67,8.3,10.1,84,0.00,,,2.75,WUHU21623XXSP,2013-02-10 20:37:00,
2013-02-10 14:42:00,25.9,21.7,29.52,NE,45,2.2,10.1,84,0.00,,,2.75,WUHU21623XXSP,2013-02-10 20:42:00,
2013-02-10 14:47:00,25.9,21.7,29.52,ESE,112,1.2,5.8,84,0.00,,,2.75,WUHU21623XXSP,2013-02-10 20:47:00,
2013-02-10 14:52:00,25.9,21.7,29.52,NE,45,6.3,7.2,84,0.00,,,2.75,WUHU21623XXSP,2013-02-10 20:52:00,
2013-02-10 14:57:00,25.9,21.7,29.51,ENE,67,3.1,7.2,84,0.00,,,2.75,WUHU21623XXSP,2013-02-10 20:57:00,
2013-02-10 15:02:00,25.9,21.7,29.51,North,0,2.9,6.3,84,0.00,,,2.75,WUHU21623XXSP,2013-02-10 21:02:00,
2013-02-10 15:07:00,25.7,21.5,29.50,NE,35,2.4,6.5,84,0.00,,,2.75,WUHU21623XXSP,2013-02-10 21:07:00,
2013-02-10 15:12:00,25.7,21.5,29.50,NE,54,3.5,7.8,84,0.00,,,2.75,WUHU21623XXSP,2013-02-10 21:12:00,
2013-02-10 15:17:00,25.9,21.7,29.49,North,7,2.5,7.8,84,0.00,,,2.75,WUHU21623XXSP,2013-02-10 21:17:00,
2013-02-10 15:22:00,25.9,21.7,29.49,NE,42,2.9,7.2,84,0.00,,,2.75,WUHU21623XXSP,2013-02-10 21:22:00,
2013-02-10 15:27:00,25.7,21.5,29.47,ENE,67,6.5,8.5,84,0.00,,,2.75,WUHU21623XXSP,2013-02-10 21:27:00,
2013-02-10 15:32:00,25.7,21.5,29.47,NE,38,4.3,13.2,84,0.00,,,2.75,WUHU21623XXSP,2013-02-10 21:32:00,
2013-02-10 15:37:00,25.7,21.5,29.46,NE,45,4.7,13.2,84,0.00,,,2.75,WUHU21623XXSP,2013-02-10 21:37:00,
2013-02-10 15:42:00,25.5,21.3,29.46,ENE,59,4.3,9.6,84,0.00,,,2.75,WUHU21623XXSP,2013-02-10 21:42:00,
2013-02-10 15:47:00,25.7,21.5,29.46,North,8,3.0,9.6,84,0.00,,,2.75,WUHU21623XXSP,2013-02-10 21:47:00,
2013-02-10 15:52:00,25.7,21.5,29.46,ENE,58,2.1,9.4,84,0.00,,,2.75,WUHU21623XXSP,2013-02-10 21:52:00,
2013-02-10 15:57:00,25.7,21.5,29.45,NNE,33,4.6,11.2,84,0.00,,,2.75,WUHU21623XXSP,2013-02-10 21:57:00,
2013-02-10 16:02:00,25.7,21.5,29.44,NNE,27,3.8,11.2,84,0.00,,,2.75,WUHU21623XXSP,2013-02-10 22:02:00,
2013-02-10 16:07:00,25.7,21.5,29.44,ENE,58,3.8,8.7,84,0.00,,,2.75,WUHU21623XXSP,2013-02-10 22:07:00,
2013-02-10 16:12:00,25.7,21.5,29.44,NE,54,4.7,9.6,84,0.00,,,2.75,WUHU21623XXSP,2013-02-10 22:12:00,
2013-02-10 16:17:00,25.5,21.3,29.44,NE,42,5.0,12.8,84,0.00,,,2.75,WUHU21623XXSP,2013-02-10 22:17:00,
2013-02-10 16:22:00,25.5,21.6,29.43,ENE,72,5.3,12.8,85,0.00,,,2.75,WUHU21623XXSP,2013-02-10 22:22:00,
2013-02-10 16:28:00,25.3,21.4,29.44,ENE,59,2.0,12.8,85,0.00,,,2.75,WUHU21623XXSP,2013-02-10 22:28:00,
2013-02-10 16:33:00,25.2,21.5,29.44,NE,40,1.3,12.8,86,0.00,,,2.75,WUHU21623XXSP,2013-02-10 22:33:00,
2013-02-10 16:38:00,25.2,21.5,29.44,NE,45,0.9,8.1,86,0.00,,,2.75,WUHU21623XXSP,2013-02-10 22:38:00,
2013-02-10 16:43:00,25.2,21.3,29.43,ENE,64,2.3,8.1,85,0.00,,,2.75,WUHU21623XXSP,2013-02-10 22:43:00,
2013-02-10 16:48:00,25.0,21.4,29.43,NNE,22,4.0,8.1,86,0.00,,,2.75,WUHU21623XXSP,2013-02-10 22:48:00,
2013-02-10 16:53:00,25.0,21.4,29.44,East,92,1.2,7.2,86,0.00,,,2.75,WUHU21623XXSP,2013-02-10 22:53:00,
2013-02-10 16:58:00,25.0,21.4,29.44,ENE,61,0.8,6.3,86,0.00,,,2.75,WUHU21623XXSP,2013-02-10 22:58:00,
2013-02-10 17:03:00,25.0,21.4,29.44,NE,45,4.5,9.2,86,0.00,,,2.75,WUHU21623XXSP,2013-02-10 23:03:00,
2013-02-10 17:08:00,25.0,21.4,29.45,SE,135,0.0,9.2,86,0.00,,,2.75,WUHU21623XXSP,2013-02-10 23:08:00,
2013-02-10 17:13:00,24.8,21.2,29.44,NNE,22,3.4,8.5,86,0.00,,,2.75,WUHU21623XXSP,2013-02-10 23:13:00,
2013-02-10 17:18:00,24.6,21.0,29.43,NNE,33,0.4,8.5,86,0.00,,,2.75,WUHU21623XXSP,2013-02-10 23:18:00,
2013-02-10 17:23:00,24.6,21.0,29.43,ENE,57,3.4,7.8,86,0.00,,,2.75,WUHU21623XXSP,2013-02-10 23:23:00,
2013-02-10 17:28:00,24.6,21.0,29.44,NNW,337,1.6,6.5,86,0.00,,,2.75,WUHU21623XXSP,2013-02-10 23:28:00,
2013-02-10 17:33:00,24.6,21.0,29.43,ENE,71,1.2,3.4,86,0.00,,,2.75,WUHU21623XXSP,2013-02-10 23:33:00,
2013-02-10 17:38:00,24.6,21.0,29.43,NE,56,0.4,7.2,86,0.00,,,2.75,WUHU21623XXSP,2013-02-10 23:38:00,
2013-02-10 17:43:00,24.6,21.0,29.43,ENE,63,0.6,7.2,86,0.00,,,2.75,WUHU21623XXSP,2013-02-10 23:43:00,
2013-02-10 17:48:00,24.6,21.0,29.43,NE,56,2.0,6.9,86,0.00,,,2.75,WUHU21623XXSP,2013-02-10 23:48:00,
2013-02-10 17:53:00,24.6,21.0,29.42,ENE,67,4.3,7.4,86,0.00,,,2.75,WUHU21623XXSP,2013-02-10 23:53:00,
2013-02-10 17:58:00,24.6,21.0,29.42,NE,51,2.1,7.4,86,0.00,,,2.75,WUHU21623XXSP,2013-02-10 23:58:00,
2013-02-10 18:03:00,24.6,21.0,29.43,ENE,63,1.8,7.4,86,0.00,,,2.75,WUHU21623XXSP,2013-02-11 00:03:00,
2013-02-10 18:08:00,24.6,21.0,29.43,SSE,157,3.6,7.6,86,0.00,,,2.75,WUHU21623XXSP,2013-02-11 00:08:00,
2013-02-10 18:13:00,24.6,21.0,29.43,NNE,22,5.8,7.6,86,0.00,,,2.75,WUHU21623XXSP,2013-02-11 00:13:00,
2013-02-10 18:18:00,24.6,21.0,29.43,ENE,57,1.9,5.8,86,0.00,,,2.75,WUHU21623XXSP,2013-02-11 00:18:00,
2013-02-10 18:23:00,24.6,21.0,29.42,NE,37,0.5,5.4,86,0.00,,,2.75,WUHU21623XXSP,2013-02-11 00:23:00,
2013-02-10 18:28:00,24.6,21.0,29.42,NE,45,5.8,5.8,86,0.00,,,2.75,WUHU21623XXSP,2013-02-11 00:28:00,
2013-02-10 18:33:00,24.6,21.0,29.42,NE,43,0.6,5.8,86,0.00,,,2.75,WUHU21623XXSP,2013-02-11 00:33:00,
2013-02-10 18:38:00,24.6,21.0,29.42,NNE,30,3.3,6.9,86,0.00,,,2.75,WUHU21623XXSP,2013-02-11 00:38:00,
2013-02-10 18:43:00,24.6,21.0,29.42,NNE,16,2.3,6.9,86,0.00,,,2.75,WUHU21623XXSP,2013-02-11 00:43:00,
2013-02-10 18:48:00,24.6,21.0,29.42,NNE,28,1.0,6.5,86,0.00,,,2.75,WUHU21623XXSP,2013-02-11 00:48:00,
2013-02-10 18:53:00,24.6,21.3,29.41,NNE,33,2.3,6.0,87,0.00,,,2.75,WUHU21623XXSP,2013-02-11 00:53:00,
2013-02-10 18:58:00,24.8,21.5,29.41,ENE,68,1.2,6.9,87,0.00,,,2.75,WUHU21623XXSP,2013-02-11 00:58:00,
2013-02-10 19:03:00,25.0,21.6,29.41,North,2,0.4,6.9,87,0.00,,,2.75,WUHU21623XXSP,2013-02-11 01:03:00,
2013-02-10 19:08:00,25.0,21.6,29.41,NNE,25,2.4,6.9,87,0.00,,,2.75,WUHU21623XXSP,2013-02-11 01:08:00,
2013-02-10 19:13:00,25.0,21.6,29.40,NE,45,2.0,6.9,87,0.00,,,2.75,WUHU21623XXSP,2013-02-11 01:13:00,
2013-02-10 19:18:00,25.0,21.6,29.40,North,0,7.8,7.8,87,0.00,,,2.75,WUHU21623XXSP,2013-02-11 01:18:00,
2013-02-10 19:23:00,25.0,21.6,29.40,ESE,112,2.9,7.8,87,0.00,,,2.75,WUHU21623XXSP,2013-02-11 01:23:00,
2013-02-10 19:28:00,25.0,21.6,29.40,North,7,1.5,7.2,87,0.00,,,2.75,WUHU21623XXSP,2013-02-11 01:28:00,
2013-02-10 19:33:00,25.0,21.6,29.39,NNE,26,0.4,6.5,87,0.00,,,2.75,WUHU21623XXSP,2013-02-11 01:33:00,
2013-02-10 19:38:00,25.0,21.6,29.39,NE,45,0.0,2.5,87,0.00,,,2.75,WUHU21623XXSP,2013-02-11 01:38:00,
2013-02-10 19:44:00,25.0,21.6,29.39,NE,45,0.0,0.0,87,0.00,,,2.75,WUHU21623XXSP,2013-02-11 01:44:00,
2013-02-10 19:49:00,25.0,21.4,29.39,North,0,0.0,0.0,86,0.00,,,2.75,WUHU21623XXSP,2013-02-11 01:49:00,
2013-02-10 19:54:00,25.0,21.4,29.39,NE,45,0.0,0.0,86,0.00,,,2.75,WUHU21623XXSP,2013-02-11 01:54:00,
2013-02-10 19:59:00,25.0,21.4,29.38,NNW,337,0.0,0.0,86,0.00,,,2.75,WUHU21623XXSP,2013-02-11 01:59:00,
2013-02-10 20:04:00,25.0,21.4,29.39,NNW,337,0.0,0.0,86,0.00,,,2.75,WUHU21623XXSP,2013-02-11 02:04:00,
2013-02-10 20:09:00,25.0,21.4,29.39,NNE,22,0.0,0.0,86,0.00,,,2.75,WUHU21623XXSP,2013-02-11 02:09:00,
2013-02-10 20:14:00,25.0,21.4,29.39,NNW,337,0.0,0.0,86,0.00,,,2.75,WUHU21623XXSP,2013-02-11 02:14:00,
2013-02-10 20:19:00,25.0,21.4,29.38,ENE,67,0.0,0.0,86,0.00,,,2.75,WUHU21623XXSP,2013-02-11 02:19:00,
2013-02-10 20:24:00,25.0,21.4,29.38,NNW,337,0.0,0.0,86,0.00,,,2.75,WUHU21623XXSP,2013-02-11 02:24:00,
2013-02-10 20:29:00,25.0,21.4,29.38,NNE,22,0.0,0.0,86,0.00,,,2.75,WUHU21623XXSP,2013-02-11 02:29:00,
2013-02-10 20:34:00,25.2,21.5,29.38,NE,45,0.0,0.0,86,0.00,,,2.75,WUHU21623XXSP,2013-02-11 02:34:00,
2013-02-10 20:41:00,25.0,21.4,29.38,North,0,0.0,0.0,86,0.00,,,2.75,WUHU21623XXSP,2013-02-11 02:41:00,
2013-02-10 20:46:00,25.0,21.4,29.38,NE,45,0.0,0.0,86,0.00,,,2.75,WUHU21623XXSP,2013-02-11 02:46:00,
2013-02-10 20:51:00,25.0,21.4,29.38,North,0,0.0,0.0,86,0.00,,,2.75,WUHU21623XXSP,2013-02-11 02:51:00,
2013-02-10 20:56:00,25.2,21.4,29.38,NNE,22,0.0,0.0,86,0.00,,,2.75,WUHU21623XXSP,2013-02-11 02:56:00,
2013-02-10 21:01:00,25.0,21.1,29.37,North,0,0.0,0.0,85,0.00,,,2.75,WUHU21623XXSP,2013-02-11 03:01:00,
2013-02-10 21:06:00,25.0,21.1,29.37,NNE,22,0.0,0.0,85,0.00,,,2.75,WUHU21623XXSP,2013-02-11 03:06:00,
2013-02-10 21:11:00,25.2,21.3,29.37,North,0,0.0,0.0,85,0.00,,,2.75,WUHU21623XXSP,2013-02-11 03:11:00,
2013-02-10 21:16:00,25.2,21.5,29.37,East,90,0.0,0.0,86,0.00,,,2.75,WUHU21623XXSP,2013-02-11 03:16:00,
2013-02-10 21:21:00,25.2,21.5,29.36,NNE,22,0.0,0.0,86,0.00,,,2.75,WUHU21623XXSP,2013-02-11 03:21:00,
2013-02-10 21:26:00,25.2,21.3,29.36,NNE,22,0.0,0.0,85,0.00,,,2.75,WUHU21623XXSP,2013-02-11 03:26:00,
2013-02-10 21:31:00,25.2,21.5,29.36,NE,45,0.0,0.0,86,0.00,,,2.75,WUHU21623XXSP,2013-02-11 03:31:00,
2013-02-10 21:36:00,25.2,21.3,29.36,NW,315,0.0,0.0,85,0.00,,,2.75,WUHU21623XXSP,2013-02-11 03:36:00,
2013-02-10 21:41:00,25.0,21.1,29.35,NNE,22,0.0,0.0,85,0.00,,,2.75,WUHU21623XXSP,2013-02-11 03:41:00,
2013-02-10 21:46:00,25.0,21.4,29.35,NNW,337,0.0,0.0,86,0.00,,,2.75,WUHU21623XXSP,2013-02-11 03:46:00,
2013-02-10 21:51:00,25.0,21.4,29.35,NE,45,0.0,0.0,86,0.00,,,2.75,WUHU21623XXSP,2013-02-11 03:51:00,
2013-02-10 21:56:00,25.0,21.4,29.35,North,0,0.0,0.0,86,0.00,,,2.75,WUHU21623XXSP,2013-02-11 03:56:00,
2013-02-10 22:01:00,25.0,21.4,29.35,North,0,0.0,0.0,86,0.00,,,2.75,WUHU21623XXSP,2013-02-11 04:01:00,
2013-02-10 22:06:00,25.0,21.4,29.35,North,0,0.0,0.0,86,0.00,,,2.75,WUHU21623XXSP,2013-02-11 04:06:00,
2013-02-10 22:11:00,25.0,21.4,29.36,NNE,22,0.0,0.0,86,0.00,,,2.75,WUHU21623XXSP,2013-02-11 04:11:00,
2013-02-10 22:16:00,25.0,21.4,29.35,NE,45,0.0,0.0,86,0.00,,,2.75,WUHU21623XXSP,2013-02-11 04:16:00,
2013-02-10 22:21:00,25.0,21.4,29.35,NNE,22,0.0,0.0,86,0.00,,,2.75,WUHU21623XXSP,2013-02-11 04:21:00,
2013-02-10 22:26:00,25.2,21.5,29.34,North,0,0.0,0.0,86,0.00,,,2.75,WUHU21623XXSP,2013-02-11 04:26:00,
2013-02-10 22:31:00,25.2,21.5,29.34,NW,315,0.0,0.0,86,0.00,,,2.75,WUHU21623XXSP,2013-02-11 04:31:00,
2013-02-10 22:36:00,25.2,21.5,29.34,North,0,0.0,0.0,86,0.00,,,2.75,WUHU21623XXSP,2013-02-11 04:36:00,
2013-02-10 22:41:00,25.2,21.5,29.34,North,0,0.0,0.0,86,0.00,,,2.75,WUHU21623XXSP,2013-02-11 04:41:00,
2013-02-10 22:46:00,25.3,21.7,29.34,NNE,22,0.0,0.0,86,0.00,,,2.75,WUHU21623XXSP,2013-02-11 04:46:00,
2013-02-10 22:51:00,25.2,21.5,29.34,NNW,337,0.0,0.0,86,0.00,,,2.75,WUHU21623XXSP,2013-02-11 04:51:00,
2013-02-10 22:56:00,25.2,21.5,29.34,North,0,0.0,0.0,86,0.00,,,2.75,WUHU21623XXSP,2013-02-11 04:56:00,
2013-02-10 23:00:00,25.2,21.3,29.34,North,0,0.0,0.0,85,0.00,,,2.75,WUHU21623XXSP,2013-02-11 05:00:00,
2013-02-10 23:05:00,25.2,21.3,29.34,NNW,337,0.0,0.0,85,0.00,,,2.75,WUHU21623XXSP,2013-02-11 05:05:00,
2013-02-10 23:10:00,25.2,21.3,29.34,North,0,0.0,0.0,85,0.00,,,2.75,WUHU21623XXSP,2013-02-11 05:10:00,
2013-02-10 23:15:00,25.2,21.3,29.34,NNW,337,0.0,0.0,85,0.00,,,2.75,WUHU21623XXSP,2013-02-11 05:15:00,
2013-02-10 23:20:00,25.0,21.1,29.34,North,0,0.0,0.0,85,0.00,,,2.75,WUHU21623XXSP,2013-02-11 05:20:00,
2013-02-10 23:25:00,25.0,20.8,29.34,NNW,337,0.0,0.0,84,0.00,,,2.75,WUHU21623XXSP,2013-02-11 05:25:00,
2013-02-10 23:30:00,25.0,21.1,29.34,NNE,22,0.0,0.0,85,0.00,,,2.75,WUHU21623XXSP,2013-02-11 05:30:00,
2013-02-10 23:35:00,25.0,20.8,29.34,NNE,22,0.0,0.0,84,0.00,,,2.75,WUHU21623XXSP,2013-02-11 05:35:00,
2013-02-10 23:40:00,25.0,20.8,29.34,NE,45,0.0,0.0,84,0.00,,,2.75,WUHU21623XXSP,2013-02-11 05:40:00,
2013-02-10 23:45:00,25.0,20.8,29.34,NNE,22,0.0,0.0,84,0.00,,,2.75,WUHU21623XXSP,2013-02-11 05:45:00,
2013-02-10 23:50:00,25.0,20.8,29.34,North,0,0.0,0.0,84,0.00,,,2.75,WUHU21623XXSP,2013-02-11 05:50:00,
2013-02-10 23:55:00,25.0,20.8,29.35,NNE,22,0.0,0.0,84,0.00,,,2.75,WUHU21623XXSP,2013-02-11 05:55:00,